TimePST,TemperatureF,Dew PointF,Humidity,Sea Level PressureIn,VisibilityMPH,Wind Direction,Wind SpeedMPH,Gust SpeedMPH,PrecipitationIn,Events,Conditions,WindDirDegrees,DateUTC
12:55 AM,16.0,10.0,77,30.52,10.0,WNW,3.5,-,N/A,,Clear,290,2013-01-02 08:55:00
1:55 AM,12.9,9.0,84,30.53,10.0,Calm,Calm,-,N/A,,Clear,0,2013-01-02 09:55:00
2:55 AM,14.0,9.0,80,30.52,10.0,Calm,Calm,-,N/A,,Clear,0,2013-01-02 10:55:00
3:55 AM,14.0,8.1,77,30.52,10.0,Calm,Calm,-,N/A,,Clear,0,2013-01-02 11:55:00
4:55 AM,12.0,6.1,77,30.53,10.0,Calm,Calm,-,N/A,,Clear,0,2013-01-02 12:55:00
5:55 AM,12.0,6.1,77,30.52,10.0,NW,4.6,-,N/A,,Clear,310,2013-01-02 13:55:00
6:55 AM,12.0,6.1,77,30.52,10.0,Calm,Calm,-,N/A,,Clear,0,2013-01-02 14:55:00
7:55 AM,12.0,6.1,77,30.54,10.0,Calm,Calm,-,N/A,,Scattered Clouds,0,2013-01-02 15:55:00
8:55 AM,15.1,8.1,74,30.52,10.0,Calm,Calm,-,N/A,,Partly Cloudy,0,2013-01-02 16:55:00
9:55 AM,19.0,10.0,68,30.52,10.0,Calm,Calm,-,N/A,,Partly Cloudy,0,2013-01-02 17:55:00
10:55 AM,21.0,10.9,65,30.51,10.0,Calm,Calm,-,N/A,,Partly Cloudy,0,2013-01-02 18:55:00
11:55 AM,23.0,12.0,63,30.47,10.0,Calm,Calm,-,N/A,,Clear,0,2013-01-02 19:55:00
12:55 PM,25.0,12.9,60,30.44,10.0,SE,3.5,-,N/A,,Clear,140,2013-01-02 20:55:00
1:55 PM,27.0,12.9,56,30.43,10.0,Calm,Calm,-,N/A,,Clear,0,2013-01-02 21:55:00
2:55 PM,28.9,12.9,51,30.41,10.0,Calm,Calm,-,N/A,,Clear,0,2013-01-02 22:55:00
3:55 PM,30.0,12.9,49,30.42,10.0,Calm,Calm,-,N/A,,Clear,0,2013-01-02 23:55:00
4:55 PM,26.6,12.2,55,30.33,10.0,Calm,Calm,-,N/A,,Clear,0,2013-01-03 00:55:00
5:55 PM,23.0,12.9,65,30.47,10.0,South,3.5,-,N/A,,Clear,180,2013-01-03 01:55:00
6:55 PM,21.9,12.9,68,30.47,10.0,South,3.5,-,N/A,,Clear,170,2013-01-03 02:55:00
7:55 PM,21.0,12.9,71,30.47,10.0,Calm,Calm,-,N/A,,Clear,0,2013-01-03 03:55:00
8:55 PM,19.9,12.0,71,30.46,10.0,NW,3.5,-,N/A,,Clear,320,2013-01-03 04:55:00
9:55 PM,19.0,12.0,74,30.44,10.0,Calm,Calm,-,N/A,,Clear,0,2013-01-03 05:55:00
10:55 PM,18.0,10.0,71,30.43,10.0,WNW,3.5,-,N/A,,Clear,300,2013-01-03 06:55:00
11:55 PM,16.0,10.0,77,30.41,10.0,Calm,Calm,-,N/A,,Clear,0,2013-01-03 07:55:00